Погода в Новобессергеневке

Россия / Ростовская область     47°10′57″N   38°50′30″E
темп.,
°C
ветер,
м/с
пор.,
м/с
влажн.,
%
обл.,
%
осадки,
мм/ч
давл.,
гПа
погр.,
м
23 октября, сб
сб2300:00+12юз51091100 0.0 1017252
03:00+12юз499386 0.0 1017217
06:00+11юз4993100 0.0 1017205
09:00+13юз588492 0.0 1017316
12:00+16юз6967100 0.0 1017502
15:00+16зюз6967100 0.0 1017487
18:00+13зюз4881100 0.0 1017238
21:00+14с366395 0.0 1018233
24 октября, вс
вс2400:00+12ссз3579100 0.1 1019285
03:00+12зсз2578100 0.3 1019374
06:00+10с3674100 0.0 1019193
09:00+11с4555100 0.0 1020322
12:00+13ссз4440100 0.0 10201080
15:00+12с3439100 0.0 10201516
18:00+11сз4540100 0.0 1021563
21:00+9сз4747100 0.0 1022304
25 октября, пн
пн2500:00+7зсз410535 0.0 1022292
03:00+6ссз7117317 0.0 1023775
06:00+5ссз596675 0.0 1025754
09:00+5ссз69625 0.0 1027899
12:00+7ссз674323 0.0 10281465
15:00+8ссз67345 0.0 10281623
18:00+6с46395 0.0 1031584
21:00+5с354519 0.0 1032213
26 октября, вт
вт2600:00+3ссв34490 0.0 1033114
03:00+2ссв34530 0.0 1033112
06:00+1ссв34540 0.0 103495
09:00+3св34450 0.0 1035301
12:00+7в34330 0.0 1034873
15:00+9в33270 0.0 1032937
18:00+7в34323 0.0 1032258
21:00+6в35390 0.0 1032192
27 октября, ср
ср2700:00+5в35480 0.0 1031186
03:00+4в45540 0.0 1030176
06:00+3в46600 0.0 1030195
09:00+5в57550 0.0 1030403
12:00+9вюв57370 0.0 1027596
15:00+12в46270 0.0 1025732
18:00+9в35365 0.0 102494
21:00+8вюв354928 0.0 1023118